Location: Ettringen
(48.1054°N, 10.6545°E)
Time: 02:58:37
(UTC+00:00)

Nadezhda 4 Rocket - Pass Details

Date: 18 November 2025
Orbit: 949 x 991 km, 82.9° (Epoch: 04 December)

Event Time Altitude Azimuth Distance (km) Brightness Sun altitude
Rises 16:50:10 0° 354° (N) 3,706 6.9 -12.3°
Reaches altitude 10° 16:52:49 10° 0° (N) 2,748 6.2 -12.7°
Maximum altitude 16:58:54 48° 74° (ENE) 1,259 4.2 -13.7°
Drops below altitude 10° 17:04:51 10° 148° (SSE) 2,703 6.1 -14.7°
Sets 17:07:26 0° 154° (SSE) 3,640 6.9 -15.1°
